C/2024 G7 ( ATLAS )

Japanese version
Home page
Updated on September 3, 2024

---------------------------------------------------------------------

* Profile

Discovery Date April 3, 2024
Magnitude 19.4 mag
Discoverer Asteroid Terrestrial-Impact Last Alert System (ATLAS) search program

* Pictures

* Orbital Elements

Epoch 2024 Oct. 17.0 TT = JDT 2460600.5
T 2025 Feb. 10.24710 TT                                 Rudenko
q   6.0276792            (2000.0)            P               Q
z  -0.0002921      Peri.  289.66136     -0.19991329     -0.96746957
 +/-0.0000091      Node   191.95054     -0.34374816     -0.07892434
e   1.0017605      Incl.  131.51858     -0.91753576     +0.24036133
>From 75 observations 2024 Apr. 3-Aug. 16, mean residual 0".5.

* Magnitudes Graph

        m1 = 7.0 + 5 log d + 10.0 log r

---------------------------------------------------------------------

The orbital elements are published on M.P.E.C. 2024-Q20.
The magnitudes graphs are made with Comet for Windows.

---------------------------------------------------------------------

Copyright(C) Seiichi Yoshida (comet@aerith.net). All rights reserved.